Year,Month,Day,Hour,Minute,Value (Times are PST for windspeed in km/hr)
2014,12,09,00,00,26.20
2014,12,09,00,01,25.40
2014,12,09,00,02,22.80
2014,12,09,00,03,29.60
2014,12,09,00,04,32.80
2014,12,09,00,05,23.40
2014,12,09,00,06,27.70
2014,12,09,00,07,25.60
2014,12,09,00,08,24.70
2014,12,09,00,09,26.40
2014,12,09,00,10,25.60
2014,12,09,00,11,25.30
2014,12,09,00,12,31.70
2014,12,09,00,13,35.20
2014,12,09,00,14,29.90
2014,12,09,00,15,25.00
2014,12,09,00,16,24.80
2014,12,09,00,17,36.30
2014,12,09,00,18,21.60
2014,12,09,00,19,35.10
2014,12,09,00,20,23.40
2014,12,09,00,21,31.20
2014,12,09,00,22,37.30
2014,12,09,00,23,29.10
2014,12,09,00,24,34.20
2014,12,09,00,25,39.70
2014,12,09,00,26,37.20
2014,12,09,00,27,38.00
2014,12,09,00,28,26.70
2014,12,09,00,29,25.90
2014,12,09,00,30,32.70
2014,12,09,00,31,27.10
2014,12,09,00,32,23.40
2014,12,09,00,33,33.50
2014,12,09,00,34,30.90
2014,12,09,00,35,31.70
2014,12,09,00,36,25.70
2014,12,09,00,37,31.50
2014,12,09,00,38,31.90
2014,12,09,00,39,26.60
2014,12,09,00,40,36.40
2014,12,09,00,41,27.50
2014,12,09,00,42,28.70
2014,12,09,00,43,26.50
2014,12,09,00,44,30.50
2014,12,09,00,45,28.40
2014,12,09,00,46,25.40
2014,12,09,00,47,34.10
2014,12,09,00,48,30.40
2014,12,09,00,49,33.10
2014,12,09,00,50,27.70
2014,12,09,00,51,36.10
2014,12,09,00,52,26.40
2014,12,09,00,53,23.50
2014,12,09,00,54,30.10
2014,12,09,00,55,32.00
2014,12,09,00,56,27.20
2014,12,09,00,57,31.20
2014,12,09,00,58,31.30
2014,12,09,00,59,31.20
2014,12,09,01,00,27.80
2014,12,09,01,01,26.30
2014,12,09,01,02,29.90
2014,12,09,01,03,24.00
2014,12,09,01,04,28.00
2014,12,09,01,05,23.50
2014,12,09,01,06,27.60
2014,12,09,01,07,22.90
2014,12,09,01,08,22.90
2014,12,09,01,09,21.40
2014,12,09,01,10,22.50
2014,12,09,01,11,26.00
2014,12,09,01,12,21.30
2014,12,09,01,13,25.00
2014,12,09,01,14,25.10
2014,12,09,01,15,32.00
2014,12,09,01,16,32.10
2014,12,09,01,17,28.60
2014,12,09,01,18,22.10
2014,12,09,01,19,23.60
2014,12,09,01,20,33.30
2014,12,09,01,21,29.70
2014,12,09,01,22,25.10
2014,12,09,01,23,26.50
2014,12,09,01,24,26.80
2014,12,09,01,25,22.60
2014,12,09,01,26,29.10
2014,12,09,01,27,26.10
2014,12,09,01,28,29.10
2014,12,09,01,29,33.20
2014,12,09,01,30,43.50
2014,12,09,01,31,26.40
2014,12,09,01,32,30.50
2014,12,09,01,33,33.90
2014,12,09,01,34,28.60
2014,12,09,01,35,29.30
2014,12,09,01,36,27.00
2014,12,09,01,37,27.40
2014,12,09,01,38,29.80
2014,12,09,01,39,38.60
2014,12,09,01,40,29.30
2014,12,09,01,41,27.20
2014,12,09,01,42,35.20
2014,12,09,01,43,24.50
2014,12,09,01,44,24.60
2014,12,09,01,45,36.00
2014,12,09,01,46,28.00
2014,12,09,01,47,32.40
2014,12,09,01,48,33.00
2014,12,09,01,49,30.70
2014,12,09,01,50,26.10
2014,12,09,01,51,31.00
2014,12,09,01,52,33.30
2014,12,09,01,53,31.40
2014,12,09,01,54,33.30
2014,12,09,01,55,25.90
2014,12,09,01,56,24.60
2014,12,09,01,57,20.60
2014,12,09,01,58,21.80
2014,12,09,01,59,29.00
2014,12,09,02,00,30.60
2014,12,09,02,01,23.90
2014,12,09,02,02,25.10
2014,12,09,02,03,39.10
2014,12,09,02,04,34.10
2014,12,09,02,05,35.10
2014,12,09,02,06,32.40
2014,12,09,02,07,20.60
2014,12,09,02,08,28.00
2014,12,09,02,09,25.00
2014,12,09,02,10,18.80
2014,12,09,02,11,29.40
2014,12,09,02,12,26.60
2014,12,09,02,13,26.10
2014,12,09,02,14,34.10
2014,12,09,02,15,34.60
2014,12,09,02,16,34.70
2014,12,09,02,17,23.10
2014,12,09,02,18,35.70
2014,12,09,02,19,31.40
2014,12,09,02,20,24.30
2014,12,09,02,21,31.70
2014,12,09,02,22,26.40
2014,12,09,02,23,24.00
2014,12,09,02,24,24.50
2014,12,09,02,25,17.10
2014,12,09,02,26,32.10
2014,12,09,02,27,20.60
2014,12,09,02,28,34.80
2014,12,09,02,29,24.10
2014,12,09,02,30,22.90
2014,12,09,02,31,31.00
2014,12,09,02,32,26.90
2014,12,09,02,33,28.10
2014,12,09,02,34,30.10
2014,12,09,02,35,28.50
2014,12,09,02,36,33.50
2014,12,09,02,37,22.10
2014,12,09,02,38,21.90
2014,12,09,02,39,36.00
2014,12,09,02,40,34.50
2014,12,09,02,41,30.40
2014,12,09,02,42,30.70
2014,12,09,02,43,23.60
2014,12,09,02,44,24.30
2014,12,09,02,45,24.40
2014,12,09,02,46,22.90
2014,12,09,02,47,22.40
2014,12,09,02,48,23.70
2014,12,09,02,49,32.20
2014,12,09,02,50,28.10
2014,12,09,02,51,28.20
2014,12,09,02,52,23.60
2014,12,09,02,53,25.30
2014,12,09,02,54,31.90
2014,12,09,02,55,22.70
2014,12,09,02,56,26.60
2014,12,09,02,57,24.30
2014,12,09,02,58,21.40
2014,12,09,02,59,24.40
2014,12,09,03,00,28.60
2014,12,09,03,01,27.30
2014,12,09,03,02,21.60
2014,12,09,03,03,26.70
2014,12,09,03,04,25.90
2014,12,09,03,05,35.20
2014,12,09,03,06,25.40
2014,12,09,03,07,28.10
2014,12,09,03,08,25.90
2014,12,09,03,09,18.80
2014,12,09,03,10,35.10
2014,12,09,03,11,30.30
2014,12,09,03,12,25.10
2014,12,09,03,13,26.20
2014,12,09,03,14,25.00
2014,12,09,03,15,29.20
2014,12,09,03,16,34.10
2014,12,09,03,17,26.30
2014,12,09,03,18,24.60
2014,12,09,03,19,28.10
2014,12,09,03,20,30.00
2014,12,09,03,21,18.20
2014,12,09,03,22,27.50
2014,12,09,03,23,33.20
2014,12,09,03,24,26.20
2014,12,09,03,25,27.50
2014,12,09,03,26,30.90
2014,12,09,03,27,21.00
2014,12,09,03,28,24.90
2014,12,09,03,29,19.50
2014,12,09,03,30,18.00
2014,12,09,03,31,26.30
2014,12,09,03,32,26.60
2014,12,09,03,33,31.40
2014,12,09,03,34,20.50
2014,12,09,03,35,24.10
2014,12,09,03,36,26.70
2014,12,09,03,37,20.90
2014,12,09,03,38,21.90
2014,12,09,03,39,20.50
2014,12,09,03,40,22.40
2014,12,09,03,41,25.80
2014,12,09,03,42,18.20
2014,12,09,03,43,23.70
2014,12,09,03,44,32.50
2014,12,09,03,45,24.50
2014,12,09,03,46,33.30
2014,12,09,03,47,26.50
2014,12,09,03,48,16.70
2014,12,09,03,49,27.00
2014,12,09,03,50,32.00
2014,12,09,03,51,30.70
2014,12,09,03,52,26.40
2014,12,09,03,53,25.40
2014,12,09,03,54,24.90
2014,12,09,03,55,26.50
2014,12,09,03,56,26.90
2014,12,09,03,57,27.80
2014,12,09,03,58,24.40
2014,12,09,03,59,36.70
2014,12,09,04,00,27.00
2014,12,09,04,01,28.70
2014,12,09,04,02,26.50
2014,12,09,04,03,24.70
2014,12,09,04,04,26.50
2014,12,09,04,05,30.70
2014,12,09,04,06,29.80
2014,12,09,04,07,19.60
2014,12,09,04,08,30.90
2014,12,09,04,09,26.20
2014,12,09,04,10,30.90
2014,12,09,04,11,27.50
2014,12,09,04,12,23.00
2014,12,09,04,13,28.20
2014,12,09,04,14,26.10
2014,12,09,04,15,20.40
2014,12,09,04,16,25.10
2014,12,09,04,17,28.70
2014,12,09,04,18,19.50
2014,12,09,04,19,33.50
2014,12,09,04,20,21.00
2014,12,09,04,21,18.60
2014,12,09,04,22,26.80
2014,12,09,04,23,24.90
2014,12,09,04,24,22.60
2014,12,09,04,25,15.30
2014,12,09,04,26,17.90
2014,12,09,04,27,17.00
2014,12,09,04,28,14.90
2014,12,09,04,29,17.00
2014,12,09,04,30,27.00
2014,12,09,04,31,32.50
2014,12,09,04,32,22.90
2014,12,09,04,33,17.30
2014,12,09,04,34,23.00
2014,12,09,04,35,22.40
2014,12,09,04,36,21.80
2014,12,09,04,37,21.40
2014,12,09,04,38,17.90
2014,12,09,04,39,19.20
2014,12,09,04,40,24.50
2014,12,09,04,41,23.00
2014,12,09,04,42,25.00
2014,12,09,04,43,22.60
2014,12,09,04,44,21.70
2014,12,09,04,45,20.60
2014,12,09,04,46,21.70
2014,12,09,04,47,20.90
2014,12,09,04,48,24.90
2014,12,09,04,49,27.70
2014,12,09,04,50,21.80
2014,12,09,04,51,22.80
2014,12,09,04,52,13.30
2014,12,09,04,53,21.00
2014,12,09,04,54,19.00
2014,12,09,04,55,20.20
2014,12,09,04,56,17.80
2014,12,09,04,57,22.50
2014,12,09,04,58,17.40
2014,12,09,04,59,28.30
2014,12,09,05,00,21.40
2014,12,09,05,01,19.40
2014,12,09,05,02,20.20
2014,12,09,05,03,32.50
2014,12,09,05,04,25.60
2014,12,09,05,05,20.70
2014,12,09,05,06,25.40
2014,12,09,05,07,24.40
2014,12,09,05,08,32.70
2014,12,09,05,09,26.50
2014,12,09,05,10,26.40
2014,12,09,05,11,21.00
2014,12,09,05,12,20.10
2014,12,09,05,13,23.60
2014,12,09,05,14,22.30
2014,12,09,05,15,17.10
2014,12,09,05,16,20.60
2014,12,09,05,17,25.70
2014,12,09,05,18,21.90
2014,12,09,05,19,26.30
2014,12,09,05,20,19.00
2014,12,09,05,21,21.50
2014,12,09,05,22,22.50
2014,12,09,05,23,25.50
2014,12,09,05,24,21.40
2014,12,09,05,25,26.20
2014,12,09,05,26,19.80
2014,12,09,05,27,21.30
2014,12,09,05,28,22.50
2014,12,09,05,29,28.30
2014,12,09,05,30,25.60
2014,12,09,05,31,25.30
2014,12,09,05,32,27.20
2014,12,09,05,33,25.00
2014,12,09,05,34,28.30
2014,12,09,05,35,24.40
2014,12,09,05,36,26.90
2014,12,09,05,37,29.00
2014,12,09,05,38,18.30
2014,12,09,05,39,27.20
2014,12,09,05,40,27.40
2014,12,09,05,41,29.80
2014,12,09,05,42,25.50
2014,12,09,05,43,27.80
2014,12,09,05,44,30.70
2014,12,09,05,45,33.70
2014,12,09,05,46,28.20
2014,12,09,05,47,27.70
2014,12,09,05,48,29.60
2014,12,09,05,49,22.00
2014,12,09,05,50,34.10
2014,12,09,05,51,31.90
2014,12,09,05,52,35.70
2014,12,09,05,53,31.60
2014,12,09,05,54,32.50
2014,12,09,05,55,29.80
2014,12,09,05,56,30.50
2014,12,09,05,57,32.10
2014,12,09,05,58,28.60
2014,12,09,05,59,30.70
2014,12,09,06,00,31.50
2014,12,09,06,01,21.40
2014,12,09,06,02,27.20
2014,12,09,06,03,25.20
2014,12,09,06,04,21.70
2014,12,09,06,05,24.60
2014,12,09,06,06,25.10
2014,12,09,06,07,24.90
2014,12,09,06,08,24.30
2014,12,09,06,09,24.30
2014,12,09,06,10,26.10
2014,12,09,06,11,21.20
2014,12,09,06,12,27.30
2014,12,09,06,13,30.10
2014,12,09,06,14,29.80
2014,12,09,06,15,27.10
2014,12,09,06,16,22.90
2014,12,09,06,17,22.50
2014,12,09,06,18,25.10
2014,12,09,06,19,22.60
2014,12,09,06,20,23.60
2014,12,09,06,21,27.20
2014,12,09,06,22,22.70
2014,12,09,06,23,22.90
2014,12,09,06,24,25.70
2014,12,09,06,25,29.90
2014,12,09,06,26,21.70
2014,12,09,06,27,29.40
2014,12,09,06,28,28.90
2014,12,09,06,29,29.10
2014,12,09,06,30,20.70
2014,12,09,06,31,24.40
2014,12,09,06,32,20.40
2014,12,09,06,33,33.20
2014,12,09,06,34,23.50
2014,12,09,06,35,28.60
2014,12,09,06,36,26.30
2014,12,09,06,37,27.60
2014,12,09,06,38,23.30
2014,12,09,06,39,25.20
2014,12,09,06,40,25.10
2014,12,09,06,41,26.40
2014,12,09,06,42,31.20
2014,12,09,06,43,27.60
2014,12,09,06,44,23.00
2014,12,09,06,45,20.90
2014,12,09,06,46,21.40
2014,12,09,06,47,23.90
2014,12,09,06,48,15.90
2014,12,09,06,49,25.60
2014,12,09,06,50,26.40
2014,12,09,06,51,24.60
2014,12,09,06,52,23.80
2014,12,09,06,53,25.00
2014,12,09,06,54,26.20
2014,12,09,06,55,35.80
2014,12,09,06,56,28.70
2014,12,09,06,57,31.30
2014,12,09,06,58,31.60
2014,12,09,06,59,27.80
2014,12,09,07,00,25.40
2014,12,09,07,01,29.00
2014,12,09,07,02,29.50
2014,12,09,07,03,32.10
2014,12,09,07,04,27.80
2014,12,09,07,05,31.60
2014,12,09,07,06,22.60
2014,12,09,07,07,29.00
2014,12,09,07,08,21.80
2014,12,09,07,09,23.40
2014,12,09,07,10,22.60
2014,12,09,07,11,32.50
2014,12,09,07,12,21.40
2014,12,09,07,13,17.40
2014,12,09,07,14,34.70
2014,12,09,07,15,29.30
2014,12,09,07,16,26.20
2014,12,09,07,17,27.70
2014,12,09,07,18,28.40
2014,12,09,07,19,25.20
2014,12,09,07,20,27.50
2014,12,09,07,21,29.90
2014,12,09,07,22,19.80
2014,12,09,07,23,25.90
2014,12,09,07,24,25.20
2014,12,09,07,25,17.80
2014,12,09,07,26,22.40
2014,12,09,07,27,20.10
2014,12,09,07,28,22.10
2014,12,09,07,29,21.40
2014,12,09,07,30,26.60
2014,12,09,07,31,20.70
2014,12,09,07,32,17.10
2014,12,09,07,33,21.40
2014,12,09,07,34,24.80
2014,12,09,07,35,22.80
2014,12,09,07,36,25.60
2014,12,09,07,37,27.90
2014,12,09,07,38,21.50
2014,12,09,07,39,29.00
2014,12,09,07,40,20.10
2014,12,09,07,41,24.70
2014,12,09,07,42,25.40
2014,12,09,07,43,18.50
2014,12,09,07,44,19.40
2014,12,09,07,45,18.40
2014,12,09,07,46,19.10
2014,12,09,07,47,15.60
2014,12,09,07,48,15.80
2014,12,09,07,49,13.80
2014,12,09,07,50,24.90
2014,12,09,07,51,13.00
2014,12,09,07,52,12.80
2014,12,09,07,53,14.80
2014,12,09,07,54,11.30
2014,12,09,07,55,15.50
2014,12,09,07,56,10.70
2014,12,09,07,57,9.40
2014,12,09,07,58,11.00
2014,12,09,07,59,15.40
2014,12,09,08,00,20.60
2014,12,09,08,01,12.10
2014,12,09,08,02,15.50
2014,12,09,08,03,12.30
2014,12,09,08,04,20.30
2014,12,09,08,05,13.30
2014,12,09,08,06,11.00
2014,12,09,08,07,10.70
2014,12,09,08,08,8.30
2014,12,09,08,09,9.60
2014,12,09,08,10,8.60
2014,12,09,08,11,17.70
2014,12,09,08,12,16.80
2014,12,09,08,13,20.60
2014,12,09,08,14,17.90
2014,12,09,08,15,18.20
2014,12,09,08,16,12.80
2014,12,09,08,17,16.70
2014,12,09,08,18,16.80
2014,12,09,08,19,14.40
2014,12,09,08,20,15.80
2014,12,09,08,21,17.00
2014,12,09,08,22,14.40
2014,12,09,08,23,11.80
2014,12,09,08,24,15.90
2014,12,09,08,25,16.70
2014,12,09,08,26,19.80
2014,12,09,08,27,15.80
2014,12,09,08,28,9.50
2014,12,09,08,29,17.90
2014,12,09,08,30,23.20
2014,12,09,08,31,19.30
2014,12,09,08,32,19.90
2014,12,09,08,33,28.30
2014,12,09,08,34,21.70
2014,12,09,08,35,17.70
2014,12,09,08,36,17.80
2014,12,09,08,37,22.40
2014,12,09,08,38,26.00
2014,12,09,08,39,24.40
2014,12,09,08,40,25.20
2014,12,09,08,41,19.70
2014,12,09,08,42,22.90
2014,12,09,08,43,20.00
2014,12,09,08,44,21.90
2014,12,09,08,45,18.40
2014,12,09,08,46,15.40
2014,12,09,08,47,21.60
2014,12,09,08,48,22.40
2014,12,09,08,49,16.20
2014,12,09,08,50,24.20
2014,12,09,08,51,22.80
2014,12,09,08,52,22.20
2014,12,09,08,53,17.40
2014,12,09,08,54,19.90
2014,12,09,08,55,25.00
2014,12,09,08,56,21.90
2014,12,09,08,57,23.30
2014,12,09,08,58,24.40
2014,12,09,08,59,18.20
2014,12,09,09,00,17.80
2014,12,09,09,01,17.70
2014,12,09,09,02,21.00
2014,12,09,09,03,20.10
2014,12,09,09,04,15.50
2014,12,09,09,05,19.80
2014,12,09,09,06,23.30
2014,12,09,09,07,20.30
2014,12,09,09,08,18.50
2014,12,09,09,09,24.20
2014,12,09,09,10,16.30
2014,12,09,09,11,25.60
2014,12,09,09,12,29.40
2014,12,09,09,13,18.70
2014,12,09,09,14,20.10
2014,12,09,09,15,20.60
2014,12,09,09,16,25.10
2014,12,09,09,17,24.10
2014,12,09,09,18,24.80
2014,12,09,09,19,20.90
2014,12,09,09,20,30.90
2014,12,09,09,21,32.70
2014,12,09,09,22,26.00
2014,12,09,09,23,27.60
2014,12,09,09,24,29.70
2014,12,09,09,25,27.40
2014,12,09,09,26,33.60
2014,12,09,09,27,30.40
2014,12,09,09,28,21.80
2014,12,09,09,29,15.00
2014,12,09,09,30,20.90
2014,12,09,09,31,26.00
2014,12,09,09,32,20.90
2014,12,09,09,33,29.30
2014,12,09,09,34,27.20
2014,12,09,09,35,19.30
2014,12,09,09,36,24.50
2014,12,09,09,37,27.40
2014,12,09,09,38,25.40
2014,12,09,09,39,15.00
2014,12,09,09,40,28.40
2014,12,09,09,41,26.40
2014,12,09,09,42,22.40
2014,12,09,09,43,20.00
2014,12,09,09,44,21.40
2014,12,09,09,45,28.30
2014,12,09,09,46,20.00
2014,12,09,09,47,19.40
2014,12,09,09,48,14.10
2014,12,09,09,49,19.30
2014,12,09,09,50,17.20
2014,12,09,09,51,22.00
2014,12,09,09,52,17.80
2014,12,09,09,53,19.60
2014,12,09,09,54,17.40
2014,12,09,09,55,22.60
2014,12,09,09,56,23.70
2014,12,09,09,57,22.50
2014,12,09,09,58,23.40
2014,12,09,09,59,16.90
2014,12,09,10,00,16.70
2014,12,09,10,01,25.90
2014,12,09,10,02,22.60
2014,12,09,10,03,19.80
2014,12,09,10,04,20.30
2014,12,09,10,05,12.20
2014,12,09,10,06,19.00
2014,12,09,10,07,15.00
2014,12,09,10,08,13.20
2014,12,09,10,09,9.80
2014,12,09,10,10,12.50
2014,12,09,10,11,17.70
2014,12,09,10,12,12.90
2014,12,09,10,13,17.70
2014,12,09,10,14,16.30
2014,12,09,10,15,16.60
2014,12,09,10,16,15.70
2014,12,09,10,17,14.10
2014,12,09,10,18,11.20
2014,12,09,10,19,11.10
2014,12,09,10,20,21.50
2014,12,09,10,21,13.20
2014,12,09,10,22,14.70
2014,12,09,10,23,13.30
2014,12,09,10,24,14.10
2014,12,09,10,25,14.20
2014,12,09,10,26,7.40
2014,12,09,10,27,6.80
2014,12,09,10,28,17.00
2014,12,09,10,29,18.40
2014,12,09,10,30,13.40
2014,12,09,10,31,8.00
2014,12,09,10,32,11.40
2014,12,09,10,33,10.30
2014,12,09,10,34,10.60
2014,12,09,10,35,7.00
2014,12,09,10,36,11.10
2014,12,09,10,37,10.00
2014,12,09,10,38,7.90
2014,12,09,10,39,9.30
2014,12,09,10,40,7.30
2014,12,09,10,41,8.30
2014,12,09,10,42,7.70
2014,12,09,10,43,6.10
2014,12,09,10,44,10.60
2014,12,09,10,45,4.60
2014,12,09,10,46,7.20
2014,12,09,10,47,8.30
2014,12,09,10,48,8.30
2014,12,09,10,49,8.70
2014,12,09,10,50,8.50
2014,12,09,10,51,8.70
2014,12,09,10,52,4.20
2014,12,09,10,53,9.80
2014,12,09,10,54,11.30
2014,12,09,10,55,9.80
2014,12,09,10,56,9.30
2014,12,09,10,57,14.00
2014,12,09,10,58,7.00
2014,12,09,10,59,13.80
2014,12,09,11,00,19.60
2014,12,09,11,01,11.40
2014,12,09,11,02,22.00
2014,12,09,11,03,18.60
2014,12,09,11,04,17.30
2014,12,09,11,05,23.90
2014,12,09,11,06,13.70
2014,12,09,11,07,19.40
2014,12,09,11,08,18.20
2014,12,09,11,09,18.80
2014,12,09,11,10,19.10
2014,12,09,11,11,16.50
2014,12,09,11,12,15.80
2014,12,09,11,13,28.10
2014,12,09,11,14,25.60
2014,12,09,11,15,15.80
2014,12,09,11,16,19.10
2014,12,09,11,17,19.60
2014,12,09,11,18,22.40
2014,12,09,11,19,12.70
2014,12,09,11,20,13.90
2014,12,09,11,21,12.50
2014,12,09,11,22,16.30
2014,12,09,11,23,14.90
2014,12,09,11,24,9.90
2014,12,09,11,25,12.80
2014,12,09,11,26,20.40
2014,12,09,11,27,13.90
2014,12,09,11,28,8.60
2014,12,09,11,29,10.20
2014,12,09,11,30,7.50
2014,12,09,11,31,7.40
2014,12,09,11,32,13.70
2014,12,09,11,33,16.10
2014,12,09,11,34,8.30
2014,12,09,11,35,7.10
2014,12,09,11,36,17.90
2014,12,09,11,37,17.40
2014,12,09,11,38,30.70
2014,12,09,11,39,18.30
2014,12,09,11,40,9.30
2014,12,09,11,41,10.90
2014,12,09,11,42,12.60
2014,12,09,11,43,15.60
2014,12,09,11,44,9.30
2014,12,09,11,45,16.40
2014,12,09,11,46,12.50
2014,12,09,11,47,13.40
2014,12,09,11,48,18.20
2014,12,09,11,49,23.00
2014,12,09,11,50,21.20
2014,12,09,11,51,27.90
2014,12,09,11,52,15.80
2014,12,09,11,53,19.90
2014,12,09,11,54,12.40
2014,12,09,11,55,20.10
2014,12,09,11,56,15.60
2014,12,09,11,57,15.30
2014,12,09,11,58,15.80
2014,12,09,11,59,24.20
2014,12,09,12,00,22.00
2014,12,09,12,01,16.80
2014,12,09,12,02,23.40
2014,12,09,12,03,23.30
2014,12,09,12,04,22.60
2014,12,09,12,05,14.80
2014,12,09,12,06,17.70
2014,12,09,12,07,13.60
2014,12,09,12,08,21.50
2014,12,09,12,09,19.30
2014,12,09,12,10,19.90
2014,12,09,12,11,15.60
2014,12,09,12,12,10.30
2014,12,09,12,13,9.80
2014,12,09,12,14,18.70
2014,12,09,12,15,27.00
2014,12,09,12,16,19.30
2014,12,09,12,17,19.30
2014,12,09,12,18,13.30
2014,12,09,12,19,25.30
2014,12,09,12,20,21.40
2014,12,09,12,21,18.70
2014,12,09,12,22,19.40
2014,12,09,12,23,13.60
2014,12,09,12,24,22.00
2014,12,09,12,25,23.90
2014,12,09,12,26,17.80
2014,12,09,12,27,23.80
2014,12,09,12,28,20.10
2014,12,09,12,29,16.40
2014,12,09,12,30,13.20
2014,12,09,12,31,10.60
2014,12,09,12,32,9.30
2014,12,09,12,33,10.60
2014,12,09,12,34,16.30
2014,12,09,12,35,12.30
2014,12,09,12,36,12.10
2014,12,09,12,37,11.50
2014,12,09,12,38,18.20
2014,12,09,12,39,15.70
2014,12,09,12,40,16.80
2014,12,09,12,41,9.20
2014,12,09,12,42,11.60
2014,12,09,12,43,9.10
2014,12,09,12,44,12.80
2014,12,09,12,45,17.50
2014,12,09,12,46,15.60
2014,12,09,12,47,8.90
2014,12,09,12,48,15.60
2014,12,09,12,49,15.50
2014,12,09,12,50,16.80
2014,12,09,12,51,12.90
2014,12,09,12,52,14.00
2014,12,09,12,53,14.80
2014,12,09,12,54,15.50
2014,12,09,12,55,10.20
2014,12,09,12,56,16.60
2014,12,09,12,57,20.80
2014,12,09,12,58,18.50
2014,12,09,12,59,13.10
2014,12,09,13,00,18.10
2014,12,09,13,01,14.30
2014,12,09,13,02,12.90
2014,12,09,13,03,14.20
2014,12,09,13,04,11.40
2014,12,09,13,05,9.90
2014,12,09,13,06,6.70
2014,12,09,13,07,5.70
2014,12,09,13,08,17.00
2014,12,09,13,09,17.20
2014,12,09,13,10,18.80
2014,12,09,13,11,10.90
2014,12,09,13,12,16.40
2014,12,09,13,13,14.00
2014,12,09,13,14,11.50
2014,12,09,13,15,14.50
2014,12,09,13,16,12.50
2014,12,09,13,17,14.50
2014,12,09,13,18,7.80
2014,12,09,13,19,12.00
2014,12,09,13,20,14.00
2014,12,09,13,21,9.80
2014,12,09,13,22,12.40
2014,12,09,13,23,12.90
2014,12,09,13,24,15.00
2014,12,09,13,25,12.00
2014,12,09,13,26,10.50
2014,12,09,13,27,14.40
2014,12,09,13,28,8.80
2014,12,09,13,29,10.10
2014,12,09,13,30,14.30
2014,12,09,13,31,11.50
2014,12,09,13,32,11.60
2014,12,09,13,33,14.80
2014,12,09,13,34,13.80
2014,12,09,13,35,14.30
2014,12,09,13,36,9.90
2014,12,09,13,37,10.40
2014,12,09,13,38,11.00
2014,12,09,13,39,11.50
2014,12,09,13,40,10.40
2014,12,09,13,41,16.00
2014,12,09,13,42,16.50
2014,12,09,13,43,17.20
2014,12,09,13,44,17.50
2014,12,09,13,45,14.10
2014,12,09,13,46,14.30
2014,12,09,13,47,14.10
2014,12,09,13,48,15.80
2014,12,09,13,49,19.20
2014,12,09,13,50,18.40
2014,12,09,13,51,19.30
2014,12,09,13,52,17.40
2014,12,09,13,53,13.30
2014,12,09,13,54,13.20
2014,12,09,13,55,14.40
2014,12,09,13,56,13.20
2014,12,09,13,57,15.50
2014,12,09,13,58,11.00
2014,12,09,13,59,13.00
2014,12,09,14,00,10.10
2014,12,09,14,01,5.40
2014,12,09,14,02,9.10
2014,12,09,14,03,11.50
2014,12,09,14,04,22.00
2014,12,09,14,05,14.60
2014,12,09,14,06,13.00
2014,12,09,14,07,11.00
2014,12,09,14,08,9.90
2014,12,09,14,09,13.30
2014,12,09,14,10,14.10
2014,12,09,14,11,10.00
2014,12,09,14,12,11.40
2014,12,09,14,13,8.10
2014,12,09,14,14,6.80
2014,12,09,14,15,7.30
2014,12,09,14,16,8.00
2014,12,09,14,17,7.10
2014,12,09,14,18,6.60
2014,12,09,14,19,7.00
2014,12,09,14,20,9.10
2014,12,09,14,21,8.60
2014,12,09,14,22,11.90
2014,12,09,14,23,10.40
2014,12,09,14,24,10.00
2014,12,09,14,25,7.70
2014,12,09,14,26,7.60
2014,12,09,14,27,8.40
2014,12,09,14,28,6.40
2014,12,09,14,29,8.40
2014,12,09,14,30,7.30
2014,12,09,14,31,7.90
2014,12,09,14,32,11.60
2014,12,09,14,33,12.70
2014,12,09,14,34,12.30
2014,12,09,14,35,9.30
2014,12,09,14,36,6.80
2014,12,09,14,37,6.10
2014,12,09,14,38,4.50
2014,12,09,14,39,4.80
2014,12,09,14,40,5.60
2014,12,09,14,41,9.20
2014,12,09,14,42,10.20
2014,12,09,14,43,9.90
2014,12,09,14,44,9.10
2014,12,09,14,45,13.60
2014,12,09,14,46,15.00
2014,12,09,14,47,11.00
2014,12,09,14,48,8.90
2014,12,09,14,49,8.30
2014,12,09,14,50,10.90
2014,12,09,14,51,11.00
2014,12,09,14,52,7.80
2014,12,09,14,53,9.70
2014,12,09,14,54,11.20
2014,12,09,14,55,11.80
2014,12,09,14,56,7.60
2014,12,09,14,57,8.50
2014,12,09,14,58,10.80
2014,12,09,14,59,11.00
2014,12,09,15,00,10.80
2014,12,09,15,01,11.70
2014,12,09,15,02,10.40
2014,12,09,15,03,10.60
2014,12,09,15,04,9.40
2014,12,09,15,05,10.50
2014,12,09,15,06,12.10
2014,12,09,15,07,8.70
2014,12,09,15,08,6.70
2014,12,09,15,09,8.70
2014,12,09,15,10,9.30
2014,12,09,15,11,6.30
2014,12,09,15,12,10.10
2014,12,09,15,13,8.60
2014,12,09,15,14,6.80
2014,12,09,15,15,6.70
2014,12,09,15,16,6.50
2014,12,09,15,17,7.80
2014,12,09,15,18,7.60
2014,12,09,15,19,5.40
2014,12,09,15,20,4.30
2014,12,09,15,21,8.90
2014,12,09,15,22,4.90
2014,12,09,15,23,4.80
2014,12,09,15,24,4.50
2014,12,09,15,25,8.80
2014,12,09,15,26,7.40
2014,12,09,15,27,5.50
2014,12,09,15,28,5.80
2014,12,09,15,29,6.20
2014,12,09,15,30,4.70
2014,12,09,15,31,8.40
2014,12,09,15,32,7.40
2014,12,09,15,33,7.70
2014,12,09,15,34,7.30
2014,12,09,15,35,4.50
2014,12,09,15,36,5.70
2014,12,09,15,37,4.40
2014,12,09,15,38,3.00
2014,12,09,15,39,6.40
2014,12,09,15,40,6.40
2014,12,09,15,41,9.40
2014,12,09,15,42,5.80
2014,12,09,15,43,6.10
2014,12,09,15,44,6.30
2014,12,09,15,45,5.50
2014,12,09,15,46,3.50
2014,12,09,15,47,3.10
2014,12,09,15,48,6.80
2014,12,09,15,49,8.80
2014,12,09,15,50,6.60
2014,12,09,15,51,6.40
2014,12,09,15,52,4.80
2014,12,09,15,53,3.50
2014,12,09,15,54,6.30
2014,12,09,15,55,8.70
2014,12,09,15,56,9.00
2014,12,09,15,57,7.00
2014,12,09,15,58,4.60
2014,12,09,15,59,2.30
2014,12,09,16,00,3.80
2014,12,09,16,01,7.10
2014,12,09,16,02,9.60
2014,12,09,16,03,10.80
2014,12,09,16,04,7.00
2014,12,09,16,05,9.70
2014,12,09,16,06,8.20
2014,12,09,16,07,8.50
2014,12,09,16,08,8.30
2014,12,09,16,09,5.40
2014,12,09,16,10,7.20
2014,12,09,16,11,11.10
2014,12,09,16,12,11.10
2014,12,09,16,13,13.40
2014,12,09,16,14,8.90
2014,12,09,16,15,7.80
2014,12,09,16,16,8.00
2014,12,09,16,17,7.90
2014,12,09,16,18,8.40
2014,12,09,16,19,10.00
2014,12,09,16,20,5.60
2014,12,09,16,21,6.20
2014,12,09,16,22,6.70
2014,12,09,16,23,3.00
2014,12,09,16,24,3.60
2014,12,09,16,25,6.30
2014,12,09,16,26,5.90
2014,12,09,16,27,6.80
2014,12,09,16,28,5.60
2014,12,09,16,29,3.10
2014,12,09,16,30,2.20
2014,12,09,16,31,5.30
2014,12,09,16,32,5.00
2014,12,09,16,33,4.20
2014,12,09,16,34,5.00
2014,12,09,16,35,7.20
2014,12,09,16,36,8.00
2014,12,09,16,37,10.20
2014,12,09,16,38,11.50
2014,12,09,16,39,8.10
2014,12,09,16,40,10.60
2014,12,09,16,41,11.00
2014,12,09,16,42,10.70
2014,12,09,16,43,9.50
2014,12,09,16,44,10.60
2014,12,09,16,45,8.60
2014,12,09,16,46,10.10
2014,12,09,16,47,12.20
2014,12,09,16,48,10.50
2014,12,09,16,49,9.20
2014,12,09,16,50,9.10
2014,12,09,16,51,8.20
2014,12,09,16,52,8.00
2014,12,09,16,53,12.00
2014,12,09,16,54,13.80
2014,12,09,16,55,16.90
2014,12,09,16,56,16.00
2014,12,09,16,57,13.30
2014,12,09,16,58,10.90
2014,12,09,16,59,7.60
2014,12,09,17,00,7.60
2014,12,09,17,01,6.30
2014,12,09,17,02,8.40
2014,12,09,17,03,5.40
2014,12,09,17,04,5.20
2014,12,09,17,05,7.80
2014,12,09,17,06,8.50
2014,12,09,17,07,7.90
2014,12,09,17,08,6.20
2014,12,09,17,09,12.00
2014,12,09,17,10,12.80
2014,12,09,17,11,12.60
2014,12,09,17,12,10.20
2014,12,09,17,13,8.70
2014,12,09,17,14,8.20
2014,12,09,17,15,8.90
2014,12,09,17,16,7.70
2014,12,09,17,17,8.10
2014,12,09,17,18,6.40
2014,12,09,17,19,7.20
2014,12,09,17,20,8.40
2014,12,09,17,21,5.10
2014,12,09,17,22,9.20
2014,12,09,17,23,10.50
2014,12,09,17,24,15.60
2014,12,09,17,25,14.80
2014,12,09,17,26,13.40
2014,12,09,17,27,7.90